{"data":{"norad_id":42962,"epoch":"2026-05-25T03:50:38.588640Z","epoch_age_seconds":54538,"freshness":"FRESH","line1":"1 42962U 17061H   26145.16016885  .00000080  00000+0  21599-4 0  9998","line2":"2 42962  86.3990  34.8819 0002289  84.1947 275.9510 14.34217272451537","mean_motion":14.34217272,"eccentricity":0.0002289,"inclination_deg":86.399,"raan_deg":34.8819,"arg_perigee_deg":84.1947,"mean_anomaly_deg":275.951,"bstar":2.1599e-5,"rev_number":45153,"period_min":100.40319748708,"perigee_km":776.03078035633,"apogee_km":779.30670822607,"semimajor_km":7155.8057442912,"source":"CELESTRAK","updated_at":"2026-05-25T13:38:14.803760Z"}}